Location: Allaines
(49.9632°N, 2.9458°E)
Time: 01:43:25
(UTC+00:00)

COSMOS 2406 - Pass Details

Date: 09 April 2020
Orbit: 842 x 865 km, 71.0° (Epoch: 03 June)

Event Time Altitude Azimuth Distance (km) Brightness Sun altitude
Exits shadow 20:55:01 26° 183° (S) 1,605 4.3 -20.8°
Maximum altitude 20:58:08 60° 113° (ESE) 969 3.2 -21.1°
Drops below altitude 10° 21:03:46 10° 35° (NE) 2,492 5.8 -21.8°
Sets 21:06:15 0° 32° (NNE) 3,436 6.5 -22.1°
